Regional Weather Roundup
Issued by NWS

Home | Current Version | Previous Version | Graphics & Text | Print | Product List | Glossary On
Versions: 1 2 3 4 5 6 7 8 9 10 11 12 13 14 15 16 17 18 19 20 21 22 23 24 25 26 27 28 29 30 31 32 33 34 35 36 37 38 39 40 41 42 43 44 45 46 47 48 49 50
000
ASUS43 KTOP 202308
RWRKS

WEATHER ROUNDUP FOR KANSAS
NATIONAL WEATHER SERVICE GOODLAND KS
500 PM CST SAT JAN 20 2018

NOTE:  "FAIR" INDICATES FEW OR NO CLOUDS BELOW 12,000 FEET WITH NO
SIGNIFICANT WEATHER AND/OR OBSTRUCTIONS TO VISIBILITY.

KSZ001>006-013>018-027>032-041>047-210000-
NORTHWEST KANSAS

CITY           SKY/WX    TMP DP  RH WIND       PRES   REMARKS
GOODLAND       MOCLDY    47  28  47 NE7       29.75R
HAYS           CLEAR     53  22  29 NW6       29.73R
HILL CITY      CLEAR     49  25  39 NE8       29.75R
RUSSELL        CLEAR     58  39  49 SE9       29.71R
$$

KSZ061>065-074>080-084>089-210000-
SOUTHWEST KANSAS

CITY           SKY/WX    TMP DP  RH WIND       PRES   REMARKS
DODGE CITY     CLEAR     63  23  21 SE12      29.70R
ELKHART        CLEAR     74  30  19 S16       29.66S
GARDEN CITY    CLEAR     66  22  18 NE7       29.68S
GREAT BEND     CLEAR     58  38  47 SE10      29.71R
LIBERAL        CLEAR     70  23  17 E13       29.67S
PRATT          CLEAR     58  34  40 S14       29.73R
$$

KSZ066>073-081>083-090>101-210000-
SOUTHEAST KANSAS

CITY           SKY/WX    TMP DP  RH WIND       PRES   REMARKS
CHANUTE        CLEAR     60  46  59 S9        29.82R
COFFEYVILLE    CLEAR     64  48  56 S14       29.81R
HUTCHINSON     CLEAR     59  43  55 S13       29.73R
MEDICINE LODGE   N/A     81  39  22 S10G20    29.72R
NEWTON         CLEAR     58  43  57 S15       29.75S
PARSONS        CLEAR     63  47  55 S9        29.82R
WICHITA INTL   PTCLDY    61  43  51 S17       29.74S
WICHITA JABRA  CLEAR     59  43  55 S13       29.75R
WICHITA MCCONL CLEAR     61  42  49 S16G23    29.75R
WINFIELD       CLEAR     63  43  48 S14       29.77S
$$

KSZ007>012-019>026-033>040-048>060-102>105-210000-
NORTHEAST KANSAS

CITY           SKY/WX    TMP DP  RH WIND       PRES   REMARKS
CONCORDIA      PTCLDY    50  42  74 E9        29.75S
EMPORIA        CLEAR     56  43  61 S10       29.78S
LAWRENCE       CLOUDY    50  45  83 E7        29.83R
MANHATTAN      CLEAR     55  43  63 SE5       29.78R
MARYSVILLE     CLOUDY    46  43  87 E3        29.81R
OLATHE IND     PTCLDY    51  45  79 E3        29.84R
OLATHE EXE     PTCLDY    51  45  79 SE3       29.84R
SALINA         CLEAR     59  44  57 S8        29.74S
TOPEKA BILLARD CLOUDY    50  46  86 E6        29.82R
TOPEKA FORBES  PTCLDY    53  45  74 SE9       29.81R
$$




USA.gov is the U.S. government's official web portal to all federal, state and local government web resources and services.